Petersburg, AK

3:55 AM AKDT on May 24, 2017 (GMT -0800)
Johnson Petersburg

Weather History for PAPG - November, 2013

Change the Weather History Date:

Saturday, November 2, 2013

  Actual Average Record
Temperature  
Mean Temperature 38 °F -  
Max Temperature 42 °F 40 °F 52 °F (1986)
Min Temperature 33 °F 32 °F 21 °F (1984)
Degree Days  
Heating Degree Days 28    
Moisture  
Dew Point 34 °F    
Average Humidity 88    
Maximum Humidity 93    
Minimum Humidity 70    
Precipitation  
Precipitation 0.00 in - - ()
Sea Level Pressure  
Sea Level Pressure 30.06 in    
Wind  
Wind Speed 3 mph (SW)    
Max Wind Speed 6 mph    
Max Gust Speed -    
Visibility 10 miles    
Events      
Averages and records for this station are not official NWS values.
T = Trace of Precipitation, MM = Missing Value Source: NWS Daily Summary

Daily Weather History Graph

Daily Weather History Graph

Search for Another Location

Airport or City:

Trip Planner

Search our weather history database for the weather conditions in past years. The results will help you decide how hot, cold, wet, or windy it might be!

Date:

Astronomy

Nov. 02, 2013 Rise Set
Actual Time 8:04 AM AKDT 5:05 PM AKDT
Civil Twilight 7:23 AM AKDT 5:45 PM AKDT
Nautical Twilight 6:38 AM AKDT 6:31 PM AKDT
Astronomical Twilight 5:54 AM AKDT 7:15 PM AKDT
Moon 7:03 AM AKDT (11/2) 4:44 PM AKDT (11/2)
Length of Visible Light 10h 22m
Length of Day
9h 00m
Waning Crescent, 1% of the Moon is Illuminated
Nov 2
Waning Crescent
Nov 3
New
Nov 9
First Quarter
Nov 17
Full
Nov 25
Last Quarter

Hourly Weather History & Observations

Time (AKDT) Temp. Windchill Dew Point Humidity Pressure Visibility Wind Dir Wind Speed Gust Speed Precip Events Conditions
12:16 AM 39.2 °F 37.0 °F 35.6 °F 87% 30.06 in 10.0 mi West 3.5 mph - N/A   Overcast
12:36 AM 39.2 °F 37.0 °F 35.6 °F 87% 30.06 in 10.0 mi WSW 3.5 mph - N/A   Overcast
1:36 AM 37.4 °F 32.8 °F 35.6 °F 93% 30.07 in 10.0 mi SW 5.8 mph - N/A   Overcast
1:56 AM 37.4 °F 33.8 °F 35.6 °F 93% 30.07 in 10.0 mi WSW 4.6 mph - N/A   Overcast
3:36 AM 35.6 °F 32.8 °F 33.8 °F 93% 30.05 in 10.0 mi SW 3.5 mph - N/A   Overcast
3:56 AM 35.6 °F 31.7 °F 33.8 °F 93% 30.05 in 10.0 mi SSW 4.6 mph - N/A   Mostly Cloudy
4:16 AM 35.6 °F 32.8 °F 33.8 °F 93% 30.05 in 10.0 mi WSW 3.5 mph - N/A   Mostly Cloudy
5:16 AM 35.6 °F 32.8 °F 33.8 °F 93% 30.04 in 10.0 mi West 3.5 mph - N/A   Overcast
5:36 AM 35.6 °F 32.8 °F 33.8 °F 93% 30.04 in 10.0 mi West 3.5 mph - N/A   Overcast
5:56 AM 35.6 °F - 33.8 °F 93% 30.04 in 10.0 mi Calm Calm - N/A   Overcast
6:16 AM 35.6 °F - 33.8 °F 93% 30.04 in 10.0 mi Calm Calm - N/A   Overcast
6:36 AM 35.6 °F 32.8 °F 33.8 °F 93% 30.04 in 10.0 mi SW 3.5 mph - N/A   Overcast
6:55 AM 37.4 °F 34.9 °F 33.8 °F 87% 30.04 in 10.0 mi SSW 3.5 mph - N/A   Overcast
7:16 AM 37.4 °F 34.9 °F 33.8 °F 87% 30.04 in 10.0 mi SW 3.5 mph - N/A   Overcast
7:36 AM 37.4 °F 34.9 °F 33.8 °F 87% 30.04 in 10.0 mi SW 3.5 mph - N/A   Overcast
7:56 AM 37.4 °F - 33.8 °F 87% 30.05 in 10.0 mi Calm Calm - N/A   Overcast
8:16 AM 37.4 °F - 33.8 °F 87% 30.05 in 10.0 mi Calm Calm - N/A   Overcast
8:36 AM 37.4 °F - 33.8 °F 87% 30.05 in 10.0 mi Calm Calm - N/A   Overcast
8:56 AM 37.4 °F 34.9 °F 35.6 °F 93% 30.05 in 10.0 mi West 3.5 mph - N/A   Overcast
9:16 AM 37.4 °F 34.9 °F 35.6 °F 93% 30.06 in 10.0 mi West 3.5 mph - N/A   Overcast
9:36 AM 37.4 °F - 35.6 °F 93% 30.06 in 10.0 mi Calm Calm - N/A   Overcast
9:56 AM 37.4 °F 34.9 °F 35.6 °F 93% 30.06 in 10.0 mi West 3.5 mph - N/A   Mostly Cloudy
10:36 AM 37.4 °F - 35.6 °F 93% 30.06 in 10.0 mi Calm Calm - N/A   Mostly Cloudy
10:56 AM 39.2 °F - 35.6 °F 87% 30.07 in 10.0 mi Calm Calm - N/A   Mostly Cloudy
11:36 AM 39.2 °F - 35.6 °F 87% 30.07 in 10.0 mi Calm Calm - N/A   Mostly Cloudy
11:56 AM 41.0 °F - 35.6 °F 81% 30.07 in 10.0 mi Calm Calm - N/A   Mostly Cloudy
12:16 PM 41.0 °F - 35.6 °F 81% 30.07 in 10.0 mi Calm Calm - N/A   Mostly Cloudy
12:56 PM 41.0 °F 38.0 °F 33.8 °F 76% 30.07 in 10.0 mi NE 4.6 mph - N/A   Scattered Clouds
1:36 PM 41.0 °F 38.0 °F 33.8 °F 76% 30.07 in 10.0 mi ENE 4.6 mph - N/A   Scattered Clouds
2:55 PM 42.8 °F 39.3 °F 33.8 °F 70% 30.07 in 10.0 mi East 5.8 mph - N/A   Mostly Cloudy
3:36 PM 39.2 °F - 33.8 °F 81% 30.08 in 10.0 mi Calm Calm - N/A   Mostly Cloudy
4:16 PM 39.2 °F 35.9 °F 35.6 °F 87% 30.07 in 10.0 mi ESE 4.6 mph - N/A   Mostly Cloudy
4:36 PM 37.4 °F 34.9 °F 33.8 °F 87% 30.08 in 10.0 mi SE 3.5 mph - N/A   Mostly Cloudy
4:56 PM 37.4 °F 33.8 °F 33.8 °F 87% 30.08 in 10.0 mi SSE 4.6 mph - N/A   Mostly Cloudy
5:36 PM 35.6 °F - 33.8 °F 93% 30.08 in 10.0 mi Calm Calm - N/A   Mostly Cloudy
5:56 PM 35.6 °F 32.8 °F 33.8 °F 93% 30.08 in 10.0 mi South 3.5 mph - N/A   Mostly Cloudy
6:16 PM 37.4 °F 34.9 °F 33.8 °F 87% 30.09 in 10.0 mi SSW 3.5 mph - N/A   Mostly Cloudy
7:16 PM 37.4 °F 34.9 °F 33.8 °F 87% 30.08 in 10.0 mi SW 3.5 mph - N/A   Mostly Cloudy
8:36 PM - - - N/A% 30.07 in 10.0 mi WSW 3.5 mph - N/A   Mostly Cloudy
8:56 PM 35.6 °F 31.7 °F 33.8 °F 93% 30.08 in 10.0 mi WSW 4.6 mph - N/A   Mostly Cloudy
9:16 PM 35.6 °F 31.7 °F 32.0 °F 87% 30.08 in 10.0 mi WSW 4.6 mph - N/A   Mostly Cloudy
9:36 PM 33.8 °F 29.6 °F 30.2 °F 87% 30.08 in 10.0 mi SW 4.6 mph - N/A   Mostly Cloudy
10:16 PM 33.8 °F 30.8 °F 30.2 °F 87% 30.09 in 10.0 mi SW 3.5 mph - N/A   Overcast
10:36 PM 33.8 °F 30.8 °F 32.0 °F 93% 30.09 in 10.0 mi SW 3.5 mph - N/A   Overcast
10:56 PM 33.8 °F 30.8 °F 30.2 °F 87% 30.08 in 10.0 mi SSW 3.5 mph - N/A   Overcast
11:36 PM 33.8 °F 29.6 °F 30.2 °F 87% 30.08 in 0.2 mi WSW 4.6 mph - N/A   Overcast